Voltar ao catálogo

STARLINK-31876

AtivoComunicaçõesVLEO
NORAD 59938·PAYLOAD·🇺🇸 United States

Lançado Jun 1, 2024 de Cape Canaveral Space Force Station

Loading…

Próximas Passagens (próximas 24 horas)

TLE

AtualizadoSource: CelesTrak SupGP

Época: Sep 15, 2026, 03:13 UTC

1 59938C 24106S   26258.13451389 -.00128040  00000+0 -46395-2 0  2587
2 59938  43.0017 342.5547 0001548 262.9358 214.8087 15.27627949    17

Acompanhe STARLINK-31876 em tempo real com AllMySat

Download on the App Store